Location: Unspecified
(0.0000°N, 0.0000°E)
Time: 13:08:55
(UTC+00:00)

Hubble Space Telescope - Pass Details

Date: 15 April 2021
Orbit: 535 x 539 km, 28.5° (Epoch: 16 April)

Event Time Altitude Azimuth Distance (km) Brightness Sun altitude
Rises 19:51:18 0° 270° (W) 2,670 5.5 -27.4°
Reaches altitude 10° 19:54:12 10° 291° (WNW) 1,777 4.4 -28.1°
Maximum altitude 19:56:53 17° 332° (NNW) 1,399 3.3 -28.7°
Enters shadow 19:57:23 16° 341° (NNW) 1,413 3.2 -28.9°
